GFSNE_sfc_wetblb_117.txt.gz
Wetbulb
59.68 60.04 59.47 58.74 57.93 57.95 57.76 57.45 55.47 52.78 53.74 54.04 51.23 51.43 52.21 51.97 51.80 51.99 50.66 52.81 53.88 54.37 55.05 55.68 53.50 52.02 50.74 49.49 47.96 47.17 47.09 47.42 47.83 48.41 49.29 49.68 49.84 50.55
58.38 58.33 59.09 59.09 58.76 58.18 57.47 57.13 56.46 54.87 52.43 53.70 51.92 49.54 51.36 50.23 50.78 50.21 48.46 49.50 52.17 53.13 53.91 52.19 51.24 50.11 49.09 47.54 46.22 45.72 45.68 46.19 46.73 47.66 48.42 48.62 49.31 50.75
58.42 58.34 57.76 58.12 57.58 57.25 56.35 55.89 54.82 54.27 52.00 52.99 48.89 47.36 48.30 47.98 47.74 47.11 47.20 47.49 48.25 51.79 52.09 51.08 50.18 49.12 47.91 46.71 45.54 44.76 44.42 44.82 45.46 45.68 46.79 46.89 47.98 50.68
53.45 53.54 54.05 55.06 55.42 56.25 55.52 54.28 53.79 53.95 52.37 51.39 46.93 44.61 46.46 48.04 47.63 46.21 44.84 45.09 45.25 47.20 50.48 50.54 49.59 48.43 47.20 46.04 44.72 43.93 43.12 43.14 43.54 43.95 44.92 45.35 46.63 49.84
49.14 49.73 50.43 51.15 51.07 52.40 53.03 52.89 52.68 51.81 51.81 51.01 48.23 45.38 44.42 44.93 42.86 42.99 42.85 43.04 43.30 45.26 48.02 49.76 49.44 48.48 47.06 45.57 44.10 43.22 41.84 41.58 42.54 42.60 43.24 43.84 46.01 49.10
46.77 47.21 47.49 47.79 48.24 49.15 49.81 50.33 50.64 50.29 49.69 49.17 45.57 42.95 43.01 43.18 43.44 41.36 39.33 40.48 40.23 42.02 44.93 46.86 48.01 47.92 47.72 45.58 43.44 42.17 40.67 41.42 41.69 41.94 42.40 42.63 45.31 47.09
45.04 45.05 45.80 45.59 45.19 46.63 47.08 47.73 48.34 48.30 47.58 46.51 44.94 42.38 41.15 39.53 41.72 43.07 42.64 41.66 40.16 40.21 40.15 42.36 43.86 43.24 43.86 43.79 41.54 40.42 40.49 40.87 40.67 40.85 41.72 42.34 44.36 45.59
42.39 43.38 43.83 43.55 44.90 45.75 46.63 47.16 47.98 46.66 46.24 45.32 45.39 43.93 43.33 42.80 43.85 41.00 43.50 38.32 37.40 40.49 38.05 38.05 39.79 37.53 36.72 37.09 38.41 39.04 40.61 39.93 39.68 40.30 40.43 41.15 42.95 44.25
41.93 42.10 42.40 43.11 43.58 43.55 44.43 45.56 46.38 47.53 48.47 47.67 44.96 44.93 45.23 43.98 44.37 39.50 41.13 38.60 38.33 37.62 38.66 37.87 35.12 35.67 35.88 35.12 38.08 39.54 40.41 39.25 38.59 39.55 39.97 40.33 40.95 42.79
41.50 41.45 41.67 42.14 42.98 43.49 43.70 43.63 43.95 44.60 46.20 47.65 47.65 47.13 46.75 47.17 44.19 43.91 41.74 39.31 33.85 34.71 37.75 36.85 34.56 34.42 33.96 35.15 37.79 40.26 39.86 38.64 37.64 38.74 38.91 39.50 39.27 39.97
37.56 38.65 40.05 40.50 42.50 43.52 42.71 41.84 42.00 42.52 44.18 45.24 46.43 46.82 47.22 46.82 44.91 39.61 36.20 35.73 33.87 31.91 33.13 34.73 30.42 33.30 32.87 34.11 36.24 39.69 39.30 38.45 37.05 37.87 38.18 38.95 38.19 36.56
36.13 36.40 38.01 38.81 40.35 40.93 40.03 40.01 38.76 40.64 41.69 41.17 39.49 41.18 44.46 44.80 45.49 41.77 38.24 36.07 33.37 31.80 32.59 33.32 28.32 30.21 30.62 31.62 34.29 36.84 38.50 37.65 36.77 35.46 35.43 37.44 38.02 36.14
33.77 34.40 35.95 37.64 38.15 38.52 39.17 39.15 39.85 41.96 42.42 41.37 38.98 37.80 38.16 38.73 41.05 40.50 38.16 37.81 34.06 34.38 34.29 33.50 29.93 28.30 30.51 29.01 30.88 33.80 35.41 34.62 33.89 33.35 32.28 35.43 38.60 37.11
32.82 34.24 34.67 36.49 37.05 37.47 37.74 39.13 40.25 41.95 40.44 37.78 35.75 35.20 35.29 35.27 35.28 35.23 35.75 35.34 35.79 34.55 34.03 32.18 30.11 30.00 30.37 28.72 28.78 29.93 31.33 31.64 32.32 32.16 32.57 32.02 33.84 36.51
33.99 34.71 35.90 36.04 36.26 36.07 37.06 38.48 39.83 39.44 38.35 34.49 34.58 34.40 34.21 33.72 32.41 32.17 31.99 31.84 31.64 32.57 32.88 31.01 30.50 28.81 32.00 31.38 28.41 28.77 28.94 29.90 30.83 31.43 30.68 31.09 31.18 31.85
34.77 34.94 34.71 34.30 34.70 34.69 35.14 36.28 36.92 37.47 37.28 36.02 35.07 33.35 31.90 31.54 31.51 30.79 29.66 30.01 29.44 27.05 28.49 29.00 29.06 30.76 29.03 29.78 29.84 28.56 29.60 28.57 29.33 29.50 29.95 29.79 30.41 31.55
33.86 31.98 30.60 30.14 30.07 30.71 31.79 33.21 35.42 36.32 35.92 35.44 32.70 30.56 30.40 30.56 30.40 30.53 30.27 29.98 30.20 27.09 26.36 26.91 27.77 29.09 30.59 29.60 28.50 28.87 26.99 27.45 28.83 28.44 28.72 28.34 28.83 30.08
30.61 28.51 27.75 28.07 28.20 28.43 29.61 30.66 32.34 35.04 35.28 34.52 32.94 31.66 30.31 29.70 29.60 29.71 30.11 30.48 29.89 28.36 27.15 26.69 27.00 27.45 28.48 28.33 30.45 27.50 27.85 27.30 27.50 27.87 28.02 28.20 27.83 29.26
27.94 27.47 27.31 27.65 28.02 28.42 28.86 29.90 30.31 32.40 34.13 33.95 32.59 31.82 31.29 30.01 30.46 28.76 29.43 29.36 29.55 28.77 28.27 27.12 27.75 28.33 25.66 24.41 27.62 29.60 27.99 27.40 27.17 27.36 28.44 28.33 29.12 29.03
27.93 27.18 26.85 27.12 27.72 27.80 28.46 28.92 30.08 31.72 32.70 33.13 32.41 32.15 31.23 30.12 29.29 28.17 28.36 28.42 27.55 26.30 25.58 26.44 27.06 27.67 26.91 26.16 25.54 27.68 28.32 27.88 28.67 28.06 27.75 28.08 29.71 31.49
27.52 27.21 27.32 27.19 27.64 28.13 28.50 29.15 29.78 30.26 31.75 32.30 32.44 32.19 31.57 30.47 29.81 29.22 28.63 29.58 28.54 27.20 25.28 25.10 27.76 30.07 27.00 29.35 26.67 25.21 26.99 29.23 29.37 29.63 28.53 28.32 27.79 27.15
26.48 25.07 25.39 27.13 26.65 26.85 27.80 28.89 29.73 30.47 30.55 31.60 32.41 32.37 31.77 31.81 30.81 29.07 28.76 29.01 27.77 26.88 26.58 26.59 28.45 26.97 26.84 27.63 25.66 25.00 25.76 28.22 30.18 30.18 29.95 30.11 30.83 27.32
25.29 25.26 24.60 24.55 24.82 25.26 26.05 27.43 27.61 28.91 30.78 30.81 32.24 32.09 31.67 30.87 31.27 30.18 29.48 29.74 27.49 27.00 25.88 24.43 25.19 25.86 26.20 25.75 25.58 25.48 25.25 26.59 27.55 27.80 28.98 31.26 31.91 31.42

GFSNE_sfc_wetblb_120.txt.gz
Wetbulb
59.14 59.36 59.37 59.48 59.02 59.24 58.99 58.52 56.21 52.71 53.19 57.28 54.59 55.87 54.99 55.32 55.53 54.19 54.48 54.15 55.97 56.44 56.54 56.95 57.28 55.84 54.84 53.72 52.29 50.86 50.18 49.70 49.71 50.15 50.48 50.63 51.14 51.41
58.73 58.78 59.13 59.07 59.52 59.23 58.48 57.92 57.34 55.70 52.93 55.68 54.60 54.15 52.68 52.62 53.41 54.05 53.83 51.93 54.49 55.21 55.08 55.12 53.99 52.99 52.24 51.49 50.30 49.12 48.55 48.34 48.87 49.38 49.70 50.02 50.13 50.10
58.28 58.19 58.23 58.09 57.75 57.88 57.53 57.10 56.11 55.64 53.17 54.63 54.54 52.76 51.64 51.83 50.99 51.64 50.60 51.43 51.55 53.69 54.38 54.06 52.84 51.82 51.17 50.14 48.84 47.93 47.55 47.41 47.62 48.03 48.27 48.37 48.43 48.27
51.09 51.62 52.07 52.78 52.63 54.08 54.82 54.72 54.66 55.09 53.49 51.62 52.95 48.95 48.12 50.32 50.37 48.86 48.28 49.00 49.89 51.48 53.36 53.20 51.95 51.23 50.44 49.48 48.24 47.31 46.48 45.67 45.26 45.51 45.89 46.31 46.42 46.59
48.52 48.60 49.41 49.83 50.27 51.30 51.40 50.96 51.33 51.83 52.54 51.26 50.57 48.70 47.52 46.80 45.55 46.73 45.68 46.44 46.73 48.07 52.30 52.48 51.60 50.73 49.73 48.85 47.69 46.38 45.24 44.37 43.71 43.52 43.99 44.02 44.57 45.72
47.49 47.58 47.84 47.76 47.68 48.10 48.20 48.48 48.87 49.58 49.39 48.85 48.59 48.30 44.89 44.66 44.99 43.37 41.33 42.59 43.59 44.52 47.77 49.74 50.75 50.23 49.64 48.69 47.20 45.52 44.32 43.27 42.79 43.09 43.35 42.83 43.05 44.79
45.74 45.77 46.24 44.67 44.00 45.75 46.08 46.89 46.98 46.50 47.19 45.85 46.03 46.66 43.51 40.82 41.71 44.46 43.61 44.70 43.09 42.65 42.51 44.32 47.02 47.31 47.70 48.18 46.41 44.60 43.36 42.53 42.28 42.35 42.26 42.48 42.53 44.04
43.03 43.84 44.30 43.49 43.98 44.93 45.16 45.40 45.29 44.38 44.23 44.45 43.98 43.66 44.61 45.31 46.79 45.05 43.52 39.63 38.96 41.41 41.13 40.98 43.81 43.10 43.83 45.10 45.82 44.02 43.00 42.13 42.07 41.21 41.14 41.34 41.42 42.80
42.09 42.14 42.07 42.63 43.24 43.27 43.83 43.61 44.08 44.74 45.05 44.71 43.02 43.72 44.33 45.99 46.50 43.96 42.89 41.08 42.56 42.29 41.34 39.95 39.14 40.34 40.62 40.40 43.45 42.83 41.56 41.36 41.28 40.06 40.22 40.49 40.72 41.64
39.78 39.86 39.69 39.94 41.54 41.05 40.19 40.87 41.48 42.87 43.93 44.05 44.59 44.15 44.67 45.83 47.00 46.02 43.91 42.49 37.02 36.44 39.78 38.76 35.50 37.71 37.51 37.66 41.28 41.41 40.88 41.52 40.30 38.84 39.62 39.70 39.82 40.13
38.67 38.91 38.16 38.54 39.09 39.27 38.00 37.39 37.26 38.67 41.75 43.65 44.74 44.87 44.98 45.56 45.97 44.17 37.19 36.19 36.69 34.28 35.16 35.01 32.99 34.19 34.11 35.12 37.67 40.59 40.95 41.01 39.53 37.97 39.12 38.80 39.37 39.03
37.47 37.83 37.95 37.38 37.79 38.15 36.86 36.01 33.84 35.98 38.28 40.05 42.10 43.44 44.01 43.16 44.22 44.40 42.21 37.10 36.40 32.72 34.11 34.09 30.67 30.99 29.98 32.16 35.78 38.33 39.86 40.15 38.94 37.77 37.14 36.95 38.97 38.30
35.00 35.47 36.63 37.00 37.25 37.43 37.54 35.54 35.13 37.07 37.49 39.60 39.67 40.91 41.36 40.03 39.83 41.48 40.86 39.72 34.55 34.78 35.18 35.46 32.03 31.05 31.82 29.65 32.45 36.13 38.71 38.42 37.34 36.58 34.44 34.73 38.29 37.91
33.82 34.85 35.00 36.30 36.19 36.11 35.98 36.59 37.34 38.21 38.00 37.05 36.33 36.71 37.57 37.75 37.30 36.17 35.93 35.81 35.78 35.46 35.94 33.22 31.89 31.42 31.10 29.31 29.43 33.18 35.02 37.02 35.86 34.41 34.65 33.66 34.62 35.96
35.39 35.35 35.63 35.02 34.81 34.26 34.77 35.27 35.54 35.24 35.02 34.65 35.02 35.67 36.71 36.16 32.84 32.46 32.33 32.39 32.03 32.88 33.77 32.75 32.45 31.74 32.26 31.82 30.39 30.41 31.70 32.94 34.04 34.25 33.50 33.50 33.94 34.56
35.44 35.97 34.35 33.67 33.31 33.18 32.92 33.35 33.88 34.21 33.43 34.52 34.82 36.10 34.02 32.50 32.43 32.30 31.69 31.70 30.49 28.46 30.05 31.74 31.90 32.13 31.51 31.82 31.86 30.59 33.06 30.98 32.02 32.44 32.60 32.20 32.54 34.17
35.17 33.63 32.12 30.85 30.84 30.90 31.34 32.33 33.48 33.21 32.39 33.21 33.70 34.11 32.91 32.04 31.90 32.00 31.99 31.67 31.82 28.89 27.63 28.35 30.55 31.40 31.57 31.30 30.58 31.81 31.23 30.54 32.09 31.13 31.54 30.22 31.12 32.27
32.24 29.94 28.72 28.78 28.53 29.01 29.06 29.79 31.32 31.81 32.19 31.70 32.54 33.27 32.39 31.35 31.52 31.28 31.91 31.94 31.97 30.69 29.33 28.19 28.83 28.91 29.40 29.77 33.23 30.39 30.51 29.43 30.41 30.17 31.60 30.42 29.27 30.68
29.90 29.18 28.34 28.00 27.82 28.71 29.06 29.18 29.62 31.04 31.88 31.54 31.51 32.50 32.51 31.72 31.92 30.48 31.10 32.05 32.15 31.41 30.71 29.83 29.42 30.24 27.72 26.72 28.35 31.01 29.69 29.27 28.87 28.59 29.96 31.51 30.40 29.90
29.39 28.31 27.69 27.81 28.08 27.00 28.06 29.14 29.79 30.55 30.80 31.00 31.29 31.83 32.59 31.84 30.94 30.28 30.83 31.34 31.46 30.83 29.58 30.28 30.68 31.35 30.62 28.60 27.01 27.91 30.44 29.58 29.98 28.86 28.71 30.56 31.44 32.81
28.05 27.47 27.48 26.50 27.25 27.45 27.41 27.59 28.76 29.18 29.75 30.51 31.19 31.60 32.40 31.92 31.39 31.10 30.93 31.43 30.96 29.58 28.51 28.49 30.99 32.60 31.23 31.22 27.34 25.57 27.97 30.92 30.85 32.32 30.63 29.94 28.53 28.47
26.41 26.03 25.92 25.99 25.90 25.69 25.16 25.38 26.14 27.56 27.69 29.02 30.63 31.22 32.35 32.29 31.93 32.25 31.29 30.47 30.60 29.65 29.71 30.03 30.38 30.02 29.75 29.80 27.59 25.42 26.51 28.80 30.83 31.47 31.67 31.58 32.15 28.78
26.08 26.05 25.78 25.70 25.46 25.37 25.08 24.99 26.43 26.24 26.66 28.38 29.75 31.16 32.05 31.67 32.41 33.14 31.73 31.20 30.94 29.69 28.17 27.72 28.66 29.65 28.21 28.16 27.97 26.53 26.37 27.16 28.20 28.56 29.29 32.95 32.22 31.96

GFSNE_sfc_wetblb_123.txt.gz
Wetbulb
58.88 59.32 58.59 58.77 58.49 58.41 57.92 57.43 55.44 52.41 53.17 56.71 56.13 56.92 56.99 56.36 56.39 56.49 56.22 55.85 56.59 57.84 58.74 59.11 58.81 58.49 58.46 59.39 58.99 57.46 55.79 53.96 52.79 52.53 52.30 52.19 52.24 52.58
58.52 58.17 58.28 58.48 58.49 58.41 58.49 58.18 57.69 55.97 53.15 56.07 55.52 55.68 53.91 53.15 54.38 54.28 54.76 53.25 55.01 56.64 57.12 56.59 56.36 56.24 57.02 56.85 56.20 54.86 53.35 52.29 51.79 51.74 51.82 51.73 51.83 51.60
57.03 57.44 56.83 55.64 56.27 56.41 56.51 56.85 56.47 56.06 53.55 53.90 54.10 53.67 53.00 52.91 53.14 53.17 53.13 53.90 53.72 54.40 56.32 56.10 55.20 55.24 55.29 54.74 53.99 52.68 51.75 51.31 50.67 50.53 50.43 50.46 50.40 50.19
49.30 50.26 50.22 51.25 51.34 52.55 52.87 52.12 51.86 52.17 51.32 49.94 51.96 50.93 49.71 51.42 51.59 50.90 50.60 50.39 51.21 52.27 53.93 54.94 54.70 54.58 53.99 53.23 52.08 51.27 50.35 49.58 48.86 48.44 48.23 47.94 48.22 48.20
48.33 48.24 48.33 48.49 48.55 49.03 49.19 49.00 49.53 49.66 49.67 48.53 48.14 50.67 49.97 49.35 48.52 48.68 48.26 48.73 48.48 49.19 51.60 53.07 54.27 54.03 53.07 52.43 51.49 50.36 49.06 48.04 47.24 46.12 45.53 45.39 45.82 46.10
46.81 46.67 46.64 45.65 44.58 45.03 45.84 46.42 46.92 46.37 46.23 45.53 45.31 45.53 46.84 47.43 46.44 45.27 45.17 45.81 45.76 46.98 47.84 49.31 52.04 52.94 52.80 52.29 50.97 49.10 47.95 47.09 46.53 45.54 44.31 44.02 43.96 43.97
44.68 44.55 45.09 43.18 43.92 44.43 43.95 43.47 42.89 42.34 42.27 42.33 42.95 43.52 42.97 43.45 42.61 44.91 44.42 45.36 46.36 45.28 44.73 45.08 46.96 48.56 50.06 51.17 49.20 47.80 47.08 46.14 45.57 44.70 43.94 43.57 43.08 42.88
42.25 42.91 43.27 42.85 43.03 44.66 44.86 44.28 42.68 40.75 39.90 39.46 39.84 39.47 40.71 43.09 44.72 44.58 44.35 43.31 41.62 44.61 42.62 42.82 44.38 45.04 46.94 48.47 49.01 48.07 46.53 45.67 44.95 43.75 43.08 42.13 41.89 42.10
40.05 40.02 40.06 40.28 41.27 40.45 40.78 41.01 41.46 42.61 43.01 40.76 39.15 39.73 40.10 41.64 42.17 41.55 42.37 43.23 42.83 44.42 41.15 39.95 42.11 41.36 44.62 45.39 48.15 47.72 46.09 45.27 44.26 43.14 41.86 40.98 40.81 41.38
39.23 38.91 38.23 38.29 39.11 38.02 37.20 37.26 37.65 38.30 38.73 39.31 39.16 39.88 41.64 42.74 42.49 42.48 42.23 42.40 43.16 38.34 39.77 37.17 36.19 38.34 38.88 38.40 44.78 46.94 45.46 44.34 42.95 42.19 40.90 40.01 40.04 40.23
38.51 38.59 37.57 37.29 38.14 38.09 36.10 34.80 34.70 35.69 38.94 40.22 40.11 41.23 42.02 43.11 44.04 42.45 39.40 38.33 37.75 36.99 36.40 35.62 33.58 33.90 34.53 34.97 37.15 44.39 44.15 43.06 42.66 41.24 39.69 39.12 39.07 39.55
37.01 37.25 38.50 36.78 37.40 37.49 35.07 33.87 32.39 33.82 35.29 36.16 37.14 38.65 40.93 41.12 43.17 41.91 40.11 36.81 37.38 33.68 34.87 34.76 31.67 31.97 31.73 32.30 34.36 36.54 39.72 42.30 42.14 40.53 39.03 37.95 37.49 37.04
34.72 34.78 35.60 36.68 37.04 36.59 36.47 34.14 33.85 35.38 35.09 36.00 36.58 37.37 37.96 38.51 38.91 39.77 38.99 37.61 35.54 36.22 36.04 34.89 32.18 31.77 31.92 29.84 31.67 32.30 36.07 37.85 37.34 36.68 37.96 35.93 36.62 37.19
33.86 34.81 35.23 36.51 35.87 35.63 35.11 35.58 35.79 35.54 33.07 32.42 32.93 34.50 35.22 35.55 36.98 37.47 36.22 35.58 36.44 35.00 36.38 33.99 32.22 32.31 31.42 29.18 29.32 31.49 31.72 33.63 33.74 32.37 31.76 33.92 35.71 36.25
35.46 35.63 36.50 35.60 35.00 34.00 34.50 34.72 34.47 32.65 31.09 30.38 30.61 31.80 34.75 36.12 34.17 33.74 32.60 32.40 32.06 31.52 32.77 33.83 32.67 31.91 31.97 31.10 29.76 30.56 31.21 31.60 32.03 31.25 28.18 29.76 29.25 30.06
35.30 35.04 34.85 34.18 33.68 33.26 32.76 32.53 32.18 31.82 30.69 30.58 30.86 31.75 34.14 34.26 33.29 32.85 31.85 32.06 31.43 29.80 30.34 32.09 31.98 32.06 31.42 31.69 31.60 29.98 31.08 29.63 31.21 29.78 29.55 29.05 29.61 31.23
34.44 33.31 31.51 30.39 29.41 29.37 29.93 30.04 30.21 30.10 30.03 30.76 30.35 30.53 31.89 33.06 32.85 32.35 31.76 31.77 30.82 30.75 28.49 29.43 31.05 31.37 31.33 31.46 30.37 30.81 30.63 29.83 29.98 29.04 29.00 28.37 28.48 29.91
32.07 30.01 29.25 28.94 28.05 27.96 27.70 27.89 28.99 29.19 29.61 29.82 30.05 30.61 30.59 31.75 32.12 32.06 31.50 31.05 30.50 30.89 29.12 28.40 28.77 28.80 29.42 30.02 33.43 30.08 29.68 28.92 29.44 28.96 29.95 26.88 27.33 28.96
29.57 29.12 28.43 28.19 27.91 27.78 27.65 27.64 27.57 28.79 29.69 29.39 29.21 29.95 31.10 31.59 32.15 31.50 30.88 30.82 30.87 31.55 30.86 29.23 28.95 29.57 27.14 25.70 28.10 31.81 28.56 28.26 27.76 28.09 28.49 27.96 28.08 28.83
29.25 28.24 27.66 27.58 27.08 26.68 26.93 26.81 26.66 27.02 27.51 28.27 28.95 29.73 30.83 31.03 30.86 31.15 31.03 30.57 30.99 31.05 29.42 29.75 28.86 30.37 29.94 27.73 26.01 26.57 32.06 28.15 28.29 27.95 27.75 29.27 30.74 34.33
28.03 27.77 27.60 26.67 26.30 26.31 26.23 25.64 25.41 25.32 26.40 26.78 27.39 28.21 30.00 30.22 30.98 31.67 31.39 32.28 31.80 29.78 27.93 28.37 29.88 33.85 30.52 30.28 25.52 25.28 28.37 32.13 32.10 29.08 28.77 27.29 26.71 27.36
26.68 26.32 26.43 27.08 26.63 26.19 25.51 25.30 24.89 25.14 25.11 25.62 26.14 27.22 28.98 30.66 30.71 31.41 31.61 30.38 30.36 29.32 29.49 30.01 30.19 29.85 28.94 28.67 25.05 24.55 26.04 28.95 32.23 33.20 32.60 31.45 28.81 24.84
26.95 26.76 26.62 26.84 26.42 25.97 25.06 24.30 24.18 24.45 24.94 25.27 25.85 27.37 28.11 28.80 31.19 31.45 31.77 30.69 30.58 28.99 27.93 27.36 28.25 29.30 28.10 28.47 26.16 25.05 25.76 26.74 27.90 28.03 30.14 33.25 32.93 34.08

GFSNE_sfc_wetblb_126.txt.gz
Wetbulb
60.00 59.44 58.72 58.42 57.92 57.57 57.00 56.13 53.84 51.33 52.68 54.78 55.02 56.56 56.31 56.04 55.93 56.15 54.90 55.51 57.04 57.43 57.63 57.67 57.85 58.67 59.89 60.45 60.44 60.24 60.78 60.49 58.91 57.40 55.51 54.55 53.95 53.94
58.08 57.77 57.57 58.02 57.83 57.57 57.31 57.65 57.36 55.71 52.96 55.77 55.57 56.01 54.37 53.99 54.19 54.02 53.44 52.70 54.62 55.85 56.31 55.91 56.02 56.65 57.75 58.38 58.35 58.50 59.37 58.53 57.25 55.95 55.37 54.64 53.91 53.56
55.36 56.71 54.04 53.99 53.58 53.48 53.74 54.14 54.38 54.29 52.28 52.98 53.62 53.44 52.96 52.67 53.06 52.79 51.39 50.32 51.58 54.23 54.77 55.02 54.99 55.55 56.33 56.61 56.63 57.44 57.58 56.86 55.59 55.06 54.57 53.79 53.31 52.66
49.21 49.25 48.84 50.26 50.31 51.05 50.66 49.83 49.96 49.89 48.64 46.61 48.75 49.30 50.20 49.78 48.84 47.85 49.23 49.23 49.07 50.80 51.61 52.02 52.48 53.76 55.18 55.57 55.32 55.91 55.22 54.47 53.80 53.20 52.73 52.29 51.76 51.21
47.51 47.45 47.22 46.64 45.35 45.48 46.33 45.99 46.45 46.47 46.34 45.07 43.71 45.49 46.68 47.50 46.38 47.04 47.09 47.00 47.74 48.62 49.76 49.93 50.68 51.39 52.68 54.14 54.67 54.23 53.01 52.30 51.73 50.89 50.29 49.78 49.42 48.92
45.00 44.78 43.07 42.99 42.61 41.98 42.75 42.04 41.79 40.67 41.13 41.18 40.81 40.96 41.42 43.04 42.44 42.03 42.37 42.65 44.41 45.95 47.76 48.79 49.38 49.89 50.42 52.08 53.28 52.13 50.94 50.74 50.41 49.51 48.41 47.27 46.28 46.36
42.21 42.48 41.70 41.96 42.89 43.33 42.04 40.12 39.14 38.43 37.99 37.66 38.37 38.79 39.13 39.45 39.52 41.82 41.46 42.32 42.59 43.83 44.58 43.68 43.92 44.43 46.86 49.31 49.97 50.51 50.04 49.94 49.36 48.76 48.14 46.90 45.54 45.09
39.06 38.69 39.87 39.69 40.80 41.88 41.36 41.03 39.84 36.86 36.39 37.00 35.62 36.74 37.48 38.63 39.42 38.83 38.92 38.07 36.43 43.09 41.71 42.47 40.12 43.19 43.56 45.60 49.16 50.50 49.90 49.60 48.77 48.10 47.59 46.22 45.19 44.06
36.61 36.45 36.62 38.33 37.89 36.51 37.62 38.10 38.01 39.13 39.13 35.27 32.99 33.81 34.21 36.59 37.70 37.29 38.09 38.22 37.89 41.13 41.06 39.41 40.21 41.99 43.59 44.78 47.64 48.55 49.46 49.05 48.15 47.11 45.84 44.91 43.67 42.70
34.95 34.68 34.13 34.38 36.35 35.82 34.75 34.03 34.18 34.40 35.30 36.13 34.42 35.27 36.64 37.31 36.74 37.29 37.33 38.84 39.20 39.72 37.56 36.86 36.75 38.94 40.33 41.13 44.45 46.40 47.54 48.41 47.22 46.25 45.13 43.98 42.48 41.82
34.97 34.65 34.31 33.45 37.56 37.80 34.13 32.59 32.43 33.68 37.37 38.25 38.35 39.01 40.01 40.85 41.22 38.56 36.22 35.33 34.08 35.53 36.89 36.11 37.52 34.54 33.34 35.45 37.10 42.14 45.39 47.59 46.73 45.34 44.42 42.77 41.39 40.69
32.69 33.70 38.07 34.74 37.12 37.34 32.89 30.92 30.58 31.77 33.44 34.04 33.82 34.90 37.13 37.47 40.29 38.81 37.37 34.75 34.00 34.12 35.45 33.66 32.55 32.34 33.67 32.62 33.13 35.48 38.06 45.12 44.44 44.35 43.20 41.09 39.46 36.99
31.42 31.33 32.32 36.82 37.14 36.61 36.15 31.09 32.43 34.34 33.76 32.21 32.05 32.83 34.41 36.23 36.41 37.24 37.25 35.79 33.39 33.26 37.32 34.21 32.33 31.91 32.14 31.60 31.56 32.33 34.20 36.17 37.70 39.39 39.69 38.54 36.51 37.60
31.36 31.45 32.19 36.37 36.16 35.51 33.73 35.22 35.33 33.83 29.57 30.16 30.22 30.53 31.34 32.53 34.22 35.76 35.17 34.63 34.55 33.21 34.42 34.53 32.73 32.64 31.90 29.97 29.57 31.42 31.75 32.09 33.14 31.83 31.98 33.66 35.55 37.21
32.96 34.17 36.31 36.04 35.02 32.64 33.92 34.17 33.33 28.64 27.69 29.14 29.06 29.75 30.54 31.66 33.12 33.82 33.78 33.44 32.66 32.01 31.81 32.32 32.44 32.17 31.99 31.34 29.95 30.06 30.87 31.03 31.89 31.61 31.19 31.08 30.62 29.57
33.76 31.69 34.37 34.44 33.83 32.18 30.63 30.14 29.19 27.63 29.08 28.74 28.86 29.85 30.90 31.59 32.31 33.78 32.22 32.18 31.22 26.41 27.52 31.51 31.98 32.03 31.63 31.68 30.05 29.62 30.79 29.11 31.15 31.14 30.70 29.58 29.97 30.53
33.18 29.63 27.90 27.21 26.43 26.35 26.68 26.64 27.20 28.56 28.28 28.81 28.50 28.71 29.68 30.41 30.83 32.94 32.30 31.07 29.30 29.48 29.74 20.99 25.33 27.88 30.96 31.39 25.50 30.03 29.01 29.47 30.71 30.05 28.80 27.26 28.03 28.94
29.47 25.36 25.17 24.41 24.36 24.63 26.11 26.37 27.10 28.00 28.14 28.19 28.28 28.65 28.37 29.04 30.00 31.64 32.37 30.26 28.96 26.90 27.95 18.74 20.54 25.49 28.53 28.22 33.20 28.47 26.66 28.50 29.09 29.17 28.79 23.68 25.25 28.01
26.76 25.12 24.85 24.51 24.31 24.79 26.67 25.66 25.14 26.51 26.92 26.86 27.08 27.68 28.03 28.57 29.83 29.83 30.64 30.33 27.34 27.12 30.64 22.44 19.69 23.60 23.67 23.22 27.90 32.55 25.07 26.48 27.07 25.97 26.04 25.06 22.89 26.63
26.02 25.07 24.10 23.96 23.81 25.30 25.51 25.21 25.25 25.09 24.98 25.41 26.20 26.53 26.26 26.77 28.22 28.99 30.66 29.78 27.85 24.76 29.01 23.95 21.95 23.77 24.21 22.26 24.59 26.58 31.72 24.52 26.22 24.00 27.71 29.70 31.44 33.87
26.31 25.15 26.05 26.38 26.03 25.86 25.56 25.38 25.25 24.59 25.21 25.04 25.05 25.59 24.98 25.48 26.78 29.12 30.18 32.54 32.38 30.02 27.98 22.66 25.44 32.92 28.25 28.43 24.68 25.42 29.01 33.19 30.29 24.73 28.02 26.89 26.33 27.34
27.10 26.46 26.66 26.64 26.38 25.75 25.39 24.88 23.79 22.67 23.61 24.26 24.49 24.01 24.17 25.61 26.02 27.69 29.73 29.85 29.50 27.27 23.54 29.77 30.46 27.39 28.23 27.03 23.67 24.46 27.34 30.30 32.71 33.19 32.82 30.70 26.52 22.46
27.12 27.10 26.90 26.59 26.47 25.84 25.11 24.65 23.53 21.37 21.79 23.37 23.56 22.97 23.83 24.01 25.81 26.96 29.39 30.45 28.46 25.80 23.24 23.20 26.69 28.08 28.30 26.38 25.41 25.18 26.41 27.07 28.93 28.85 30.56 34.23 34.85 34.54

GFSNE_sfc_wetblb_129.txt.gz
Wetbulb
59.57 59.71 59.74 59.48 58.86 58.62 57.56 55.84 53.64 50.28 50.78 53.63 54.58 56.24 56.55 56.18 55.28 55.66 54.95 54.93 56.32 56.56 56.83 56.86 56.61 56.39 56.05 56.46 57.51 59.60 61.16 60.96 60.71 61.17 60.83 59.04 57.91 57.38
59.90 59.22 58.71 58.11 57.96 57.39 57.17 56.84 56.23 54.58 52.42 55.39 54.66 54.07 54.39 53.87 54.19 54.03 53.51 51.99 53.48 53.59 54.05 53.75 53.83 54.28 54.93 55.41 56.40 57.44 58.47 59.47 59.85 60.74 60.77 59.40 57.59 56.76
56.61 56.86 52.67 53.99 52.94 52.86 52.69 52.06 50.66 50.06 48.66 50.57 51.73 51.01 51.03 50.92 51.14 51.14 50.48 49.35 48.80 51.08 51.14 51.01 51.14 51.41 51.95 52.64 53.64 54.90 56.79 57.69 58.55 60.02 60.34 59.28 57.95 56.80
49.16 49.05 49.05 48.75 47.41 47.66 48.09 47.52 47.45 48.47 47.38 45.65 47.23 46.77 46.95 48.56 47.80 45.84 46.21 47.14 45.69 48.93 50.45 51.32 51.52 51.55 51.59 51.37 51.72 52.38 53.15 55.15 55.86 57.69 58.66 57.86 57.10 56.10
47.31 46.12 45.70 45.53 44.49 45.12 45.12 44.75 43.85 43.86 44.40 43.06 42.19 43.00 41.97 41.94 41.23 42.16 42.73 42.98 45.08 47.23 48.57 48.89 49.66 50.19 51.01 51.33 51.31 51.21 51.39 52.09 53.93 55.23 55.26 55.39 55.09 54.61
44.31 42.97 43.04 41.74 41.55 42.21 41.54 40.59 40.43 39.40 38.69 38.07 37.62 37.32 37.23 38.83 39.74 38.63 38.80 40.22 40.63 42.20 44.19 45.88 47.81 48.70 49.10 49.36 49.47 48.95 48.99 49.95 52.71 53.96 53.04 52.23 51.84 51.71
40.80 41.09 40.95 42.11 43.66 41.86 38.93 37.39 37.14 36.69 36.42 35.50 34.76 35.31 35.05 35.14 34.91 36.95 36.71 37.91 37.92 38.72 39.52 40.65 41.57 42.52 42.95 45.57 46.31 47.48 48.47 49.77 50.73 52.84 52.51 51.37 49.71 49.00
37.60 37.40 38.26 38.66 39.17 40.48 39.91 39.46 38.51 35.29 33.67 32.52 32.18 32.10 32.60 33.09 34.32 34.67 35.20 34.17 32.19 37.10 36.38 38.03 38.73 39.33 41.04 42.05 45.21 46.78 47.90 48.53 49.45 50.93 51.06 50.73 49.06 47.37
35.25 35.22 36.26 37.48 36.32 35.34 37.07 37.40 36.79 37.67 37.39 33.83 31.31 31.21 31.85 32.95 33.41 33.14 34.12 34.25 34.58 38.37 38.48 36.23 38.86 37.76 39.94 42.18 45.34 46.27 46.93 47.50 48.08 48.62 49.73 49.32 48.14 46.79
34.02 33.55 33.53 34.17 35.96 35.02 33.38 32.23 32.21 32.57 33.53 34.51 33.03 34.59 35.56 36.24 36.19 36.77 37.04 36.52 35.98 36.17 36.77 33.76 35.85 35.92 39.04 38.63 42.81 43.41 43.89 44.77 45.65 47.16 48.45 48.15 46.47 45.61
33.23 33.08 33.07 32.64 37.69 38.12 32.90 31.10 30.76 31.32 35.76 37.20 37.42 37.16 37.33 37.94 38.39 36.81 34.48 33.49 32.81 34.46 35.09 34.89 35.20 35.49 36.05 37.76 36.26 39.34 40.55 41.75 43.14 45.35 48.17 46.82 45.43 43.61
31.28 31.83 37.08 34.45 37.60 37.62 32.32 29.97 28.33 28.92 31.57 31.51 30.89 32.92 34.62 35.30 37.88 36.66 35.80 32.71 32.49 32.29 34.77 33.26 34.96 32.82 33.30 33.11 33.15 34.36 34.56 38.96 42.05 46.54 46.32 44.54 42.41 37.78
30.39 30.21 31.06 36.84 37.11 36.97 36.24 29.67 31.13 34.01 31.71 28.44 28.11 30.09 32.10 32.52 33.40 34.34 34.14 34.25 31.70 31.62 35.60 34.30 32.39 32.67 31.98 32.46 32.07 32.44 32.78 34.56 35.93 37.37 43.02 40.39 37.85 36.21
30.45 30.87 30.96 36.33 36.70 35.81 33.36 34.85 35.11 32.61 28.23 27.35 28.57 29.16 29.54 30.10 31.03 32.09 33.10 34.46 34.59 32.96 34.25 32.54 30.99 32.32 32.07 32.23 30.54 31.85 32.17 32.43 32.75 32.30 32.63 35.01 35.74 36.56
31.90 33.63 35.88 35.92 35.60 32.18 33.14 33.44 32.40 27.68 26.18 28.03 27.80 28.28 29.71 30.54 31.30 32.01 33.39 33.60 33.24 33.20 33.19 32.08 31.25 31.77 31.86 31.50 31.25 30.39 31.74 31.30 32.19 31.79 30.86 31.35 31.37 30.86
32.66 30.29 33.53 34.29 33.78 31.89 29.87 29.23 28.32 26.51 27.53 27.88 28.12 28.88 29.73 29.95 30.15 31.54 31.24 32.23 31.64 29.06 25.34 25.89 28.10 31.18 31.00 31.82 31.25 29.39 30.43 27.76 29.32 29.96 29.56 29.85 30.01 31.13
33.02 29.19 27.44 27.03 26.42 26.12 26.17 25.82 25.98 25.75 27.65 28.09 26.81 26.26 27.93 28.20 28.51 30.71 31.19 31.56 29.73 28.61 28.26 28.52 28.16 29.16 31.26 30.94 26.91 23.85 27.19 27.89 28.45 28.34 29.28 26.88 28.26 28.91
31.51 29.15 24.83 24.06 24.10 24.37 24.88 25.19 26.31 26.67 26.99 26.21 25.89 25.87 25.40 26.26 26.69 29.08 30.59 29.91 29.75 27.45 27.99 28.11 26.92 27.49 28.63 29.31 32.35 24.37 27.13 28.28 29.02 29.65 28.75 24.81 25.29 28.52
29.50 28.65 24.72 24.07 24.11 24.16 23.77 25.61 25.16 25.99 26.33 25.31 24.70 25.16 26.13 25.18 25.61 25.65 27.90 29.07 29.23 27.13 27.95 29.19 23.23 24.20 21.38 22.39 27.11 32.50 24.86 26.52 26.68 28.06 28.04 26.76 25.71 28.59
28.43 27.05 24.25 24.01 23.38 24.43 25.52 25.39 25.08 25.05 24.60 24.50 24.76 25.19 25.08 24.29 23.65 23.97 25.99 27.63 28.96 27.68 28.69 28.57 21.09 22.94 23.37 23.74 23.55 27.33 31.39 23.90 24.33 26.12 27.00 29.49 30.87 33.13
27.72 26.84 26.94 26.16 26.38 25.77 25.67 25.35 24.93 23.95 23.78 16.83 20.97 21.93 22.91 22.58 22.96 23.48 24.57 28.02 30.25 27.86 25.43 28.06 24.29 31.64 27.50 27.53 24.81 26.10 29.81 32.09 29.16 24.92 27.41 26.52 26.74 27.77
27.90 26.97 26.83 26.69 26.63 25.80 25.54 24.98 24.34 22.07 19.00 19.24 20.49 21.73 22.29 22.50 22.43 22.88 23.83 23.99 27.01 27.63 24.73 23.12 30.87 28.55 27.29 25.78 23.85 25.22 27.70 29.90 32.52 33.20 32.75 30.79 26.92 23.73
28.06 27.63 27.36 27.14 26.98 26.31 25.46 17.86 18.80 21.90 19.76 20.05 19.51 20.24 21.37 21.10 22.84 23.70 23.75 24.73 26.37 26.16 23.21 23.87 25.18 27.99 26.94 25.45 25.85 25.79 26.87 27.33 28.44 29.94 31.46 34.64 34.10 33.83

GFSNE_sfc_wetblb_132.txt.gz
Wetbulb
59.79 59.17 58.99 59.73 59.64 59.19 58.87 58.34 55.88 52.10 51.35 53.24 53.72 54.59 54.87 54.98 54.43 54.57 54.21 53.75 54.02 53.56 53.22 53.21 52.96 53.06 53.55 54.03 54.60 54.84 55.56 56.64 58.32 59.78 61.35 61.42 62.01 63.06
59.63 59.26 59.56 59.65 58.98 58.47 57.60 57.11 56.31 54.55 51.58 54.12 52.29 51.84 52.49 52.59 53.08 52.46 51.59 51.14 51.60 51.51 50.95 51.83 51.67 51.28 51.19 51.64 52.07 52.73 53.24 54.64 56.37 58.51 59.58 60.64 60.99 61.91
55.92 57.87 54.18 54.57 52.63 52.19 51.96 51.56 50.19 50.92 50.60 50.32 50.78 49.82 48.53 48.33 47.76 48.21 48.38 48.28 48.16 48.64 49.70 49.83 49.86 50.17 50.73 50.99 51.46 51.86 51.93 52.29 53.37 55.37 57.62 58.36 59.28 60.79
48.48 49.27 48.30 48.25 47.53 47.99 47.51 46.11 45.75 45.65 46.66 45.58 46.45 44.97 45.44 44.39 43.62 42.76 43.61 44.21 42.93 46.28 47.55 46.70 46.78 46.95 48.14 49.79 50.35 50.77 50.73 50.18 50.77 51.43 52.96 55.41 56.80 57.60
44.68 44.35 44.83 44.99 44.45 44.61 44.26 42.78 42.90 43.47 42.99 42.22 41.31 41.69 41.36 39.18 38.35 39.59 39.58 39.45 42.25 44.61 44.58 45.20 44.98 46.39 47.10 46.91 47.54 48.14 48.67 48.50 48.79 49.76 50.89 51.99 54.38 57.46
43.19 42.43 41.99 42.26 41.72 40.88 39.67 39.08 38.90 38.51 37.83 37.46 36.88 36.44 36.06 36.68 36.09 35.27 35.08 36.67 37.51 39.89 41.42 42.36 44.34 44.23 44.85 45.54 45.36 45.68 46.31 47.01 48.07 48.92 49.72 50.49 52.73 55.18
41.04 41.15 41.61 41.91 42.25 40.62 37.81 36.38 35.99 35.14 34.68 34.27 33.82 34.42 33.96 33.52 32.41 34.37 33.62 34.65 35.32 36.25 36.24 37.50 38.60 39.28 40.27 42.25 42.57 43.89 45.35 46.23 47.02 47.81 48.51 49.63 50.67 53.06
36.52 37.11 37.11 36.98 38.03 39.81 39.22 38.60 36.97 33.86 32.56 31.62 30.89 31.00 31.10 31.91 32.76 32.20 32.95 32.56 31.66 36.55 34.48 36.13 37.28 37.46 38.56 38.59 42.46 44.08 44.99 45.37 46.06 46.66 47.47 48.13 48.71 51.46
34.74 35.32 35.84 36.80 35.91 34.41 36.42 36.46 35.93 36.77 36.14 32.73 30.07 29.86 29.76 31.56 33.62 33.14 33.68 34.48 34.45 35.97 35.38 34.54 35.22 34.98 37.29 38.93 42.34 43.51 43.79 43.71 44.04 44.63 45.19 46.10 47.51 49.03
33.67 33.25 33.60 33.58 35.84 34.89 32.75 31.57 31.23 31.43 32.52 33.46 31.49 32.10 34.62 35.27 35.34 35.47 35.53 34.80 35.11 34.86 34.57 32.18 33.91 32.81 35.69 37.28 41.33 42.05 42.07 42.48 42.41 42.94 43.45 44.13 45.82 47.31
32.07 33.00 32.77 32.50 37.66 38.11 31.88 30.13 29.37 29.98 34.54 36.37 36.05 35.92 36.29 36.25 36.30 35.22 33.11 31.70 30.60 31.99 34.56 33.56 33.91 34.33 35.72 35.68 35.06 39.70 40.10 40.53 41.14 41.92 44.80 46.67 46.21 47.89
29.90 30.19 36.31 34.56 37.66 37.53 30.92 28.94 27.62 28.48 29.61 29.02 28.84 29.88 32.26 33.86 35.09 33.28 32.21 29.65 30.00 30.54 33.67 32.69 33.06 32.84 31.61 33.92 34.29 35.72 34.16 37.95 38.59 40.28 43.52 45.10 41.61 37.79
29.55 29.51 30.04 36.47 37.16 36.76 35.94 29.11 29.98 32.95 29.29 27.22 26.68 27.13 28.38 30.85 31.56 31.71 32.21 31.37 29.63 30.41 33.58 33.83 31.76 31.64 31.66 32.31 33.12 32.98 31.80 33.56 33.55 35.74 37.94 40.46 39.47 37.35
30.37 29.70 30.02 35.96 36.27 35.85 32.66 34.35 34.62 31.55 27.39 26.01 26.41 27.69 28.10 28.52 27.54 30.50 31.59 32.15 33.19 32.51 34.10 33.29 30.31 30.58 30.10 29.60 30.66 32.64 30.14 31.46 32.31 32.49 32.92 35.35 36.46 36.60
30.60 32.84 34.93 35.22 35.10 31.99 32.86 33.01 31.25 26.94 25.47 25.20 26.18 26.43 27.41 27.30 27.56 29.35 31.65 32.39 32.72 33.05 33.20 32.39 31.35 30.47 29.83 28.97 29.70 31.13 31.81 28.18 32.19 31.83 31.16 30.81 30.39 28.98
32.06 29.90 32.83 33.26 32.74 31.44 29.31 28.88 27.95 25.76 24.86 26.47 26.89 26.41 24.80 23.92 26.33 27.87 28.82 30.21 30.67 30.85 29.29 28.32 29.69 28.55 28.56 29.37 29.17 28.81 28.00 26.37 23.87 25.58 28.18 28.21 29.71 31.20
32.53 31.23 28.60 27.75 26.18 26.02 26.03 25.55 25.58 25.63 23.99 27.25 24.69 25.05 23.44 23.81 24.68 24.58 26.88 29.10 28.66 29.12 28.33 29.97 29.95 28.45 29.76 29.24 26.56 22.93 23.40 21.83 22.49 25.72 25.65 26.07 27.21 29.20
31.69 29.51 28.67 28.11 24.84 24.50 24.74 24.07 24.21 26.10 26.20 25.77 25.08 24.73 23.15 23.88 23.69 24.39 23.48 24.96 26.80 27.75 28.75 27.96 24.23 21.68 21.97 25.55 31.76 27.06 21.47 21.33 24.55 29.32 28.46 22.95 23.54 29.05
30.01 28.79 27.96 27.03 24.91 24.46 23.69 22.48 24.78 26.10 26.58 24.84 20.84 23.01 24.45 24.11 22.56 21.56 23.45 24.21 25.25 26.78 28.29 28.57 23.19 20.17 16.71 16.01 24.12 31.38 26.54 22.13 25.71 28.19 28.14 26.25 23.87 28.48
28.26 27.77 27.19 27.11 25.83 22.87 25.94 25.86 25.81 25.51 24.68 22.55 17.32 15.62 19.14 21.46 21.41 20.90 22.03 22.47 23.67 25.62 28.62 27.66 24.70 22.42 19.48 19.52 23.35 24.47 31.47 23.59 24.88 26.00 27.47 29.09 30.10 33.11
26.49 26.28 27.65 27.06 26.61 26.71 26.44 26.00 25.35 24.56 24.40 16.53 10.85 12.56 17.21 21.00 20.37 21.00 22.04 25.40 26.28 24.01 25.06 26.61 28.16 32.83 24.21 23.08 20.20 23.60 28.25 31.88 28.98 24.27 26.89 26.62 26.75 27.93
26.32 27.69 27.70 27.55 27.05 26.42 25.94 25.45 24.52 22.10 17.16 15.88 15.53 16.66 19.23 20.63 20.34 20.93 21.88 21.71 22.46 23.93 25.45 28.50 29.36 26.04 22.30 22.12 20.42 23.01 27.11 29.41 31.60 33.13 32.94 31.31 27.06 24.17
26.86 28.20 27.90 27.57 27.33 26.95 26.25 25.59 21.60 20.84 19.14 18.33 18.65 18.00 16.57 18.56 20.87 21.55 22.01 22.44 23.16 23.68 25.59 25.64 25.55 24.13 24.15 23.23 23.57 24.87 26.56 25.75 28.12 30.23 31.25 34.51 33.64 34.46